When you browse on this site, cookies collect data to enhance your experience and personalize the content and advertising you see.
Visit our Privacy Policy to learn more. By continuing to use the site, you agree to this use of cookies and data.
  • In Hungary
  • List of Countries
  • For 7 days
  • Water Temperature
  • Satellite Maps
  • Weather Map
  • News
  • Weather Widgets
  • user-avatar
    Login

    Hourly Weather Karlsruhe

    Today, 26 April, Friday

    Time Temperature Precipitation Wind Pressure Humidity
    00:00 +10°C° 0 mm 2 mps 746 mmHg 88%
    01:00 +10°C° 0 mm 1 mps 747 mmHg 90%
    02:00 +9°C° 0.6 mm 2 mps 747 mmHg 90%
    03:00 +9°C° 0.6 mm 3 mps 747 mmHg 91%
    04:00 +9°C° 0.6 mm 3 mps 748 mmHg 92%
    05:00 +9°C° 1.2 mm 3 mps 748 mmHg 92%
    06:00 +9°C° 1.2 mm 3 mps 748 mmHg 92%
    07:00 +9°C° 1.2 mm 2 mps 749 mmHg 92%
    08:00 +9°C° 1.3 mm 3 mps 749 mmHg 92%
    09:00 +9°C° 1.3 mm 3 mps 750 mmHg 92%
    10:00 +8°C° 1.3 mm 4 mps 750 mmHg 91%
    11:00 +8°C° 0.5 mm 4 mps 751 mmHg 89%
    12:00 +10°C° 0.5 mm 4 mps 751 mmHg 87%
    13:00 +10°C° 0.5 mm 4 mps 752 mmHg 85%
    14:00 +11°C° 0.1 mm 3 mps 752 mmHg 80%
    15:00 +12°C° 0.1 mm 3 mps 752 mmHg 75%
    16:00 +13°C° 0.1 mm 3 mps 752 mmHg 71%
    17:00 +13°C° 0 mm 3 mps 752 mmHg 73%
    18:00 +13°C° 0 mm 2 mps 752 mmHg 75%
    19:00 +13°C° 0 mm 2 mps 752 mmHg 76%
    20:00 +12°C° 0 mm 2 mps 752 mmHg 78%
    21:00 +10°C° 0 mm 2 mps 753 mmHg 80%
    22:00 +9°C° 0 mm 3 mps 753 mmHg 81%
    23:00 +9°C° 0 mm 3 mps 753 mmHg 82%

    Tomorrow, 27 April, Saturday

    Time Temperature Precipitation Wind Pressure Humidity
    00:00 +8°C° 0 mm 3 mps 753 mmHg 83%
    01:00 +8°C° 0 mm 2 mps 753 mmHg 84%
    02:00 +8°C° 0 mm 3 mps 753 mmHg 84%
    03:00 +8°C° 0 mm 3 mps 753 mmHg 84%
    04:00 +8°C° 0 mm 3 mps 753 mmHg 84%
    05:00 +8°C° 0 mm 3 mps 753 mmHg 83%
    06:00 +8°C° 0 mm 4 mps 753 mmHg 81%
    07:00 +10°C° 0 mm 4 mps 753 mmHg 80%
    08:00 +9°C° 0.1 mm 5 mps 753 mmHg 79%
    09:00 +10°C° 0.1 mm 6 mps 753 mmHg 78%
    10:00 +11°C° 0.1 mm 6 mps 753 mmHg 76%
    11:00 +11°C° 0.3 mm 6 mps 753 mmHg 76%
    12:00 +11°C° 0.3 mm 6 mps 753 mmHg 75%
    13:00 +11°C° 0.3 mm 6 mps 752 mmHg 74%
    14:00 +11°C° 0.3 mm 6 mps 752 mmHg 75%
    15:00 +11°C° 0.3 mm 6 mps 753 mmHg 75%
    16:00 +11°C° 0.3 mm 6 mps 753 mmHg 76%
    17:00 +10°C° 0.4 mm 5 mps 753 mmHg 77%
    18:00 +8°C° 0.4 mm 5 mps 754 mmHg 78%
    19:00 +7°C° 0.4 mm 4 mps 754 mmHg 80%
    20:00 +7°C° 0 mm 4 mps 755 mmHg 80%
    21:00 +6°C° 0 mm 4 mps 755 mmHg 81%
    22:00 +5°C° 0 mm 4 mps 756 mmHg 81%
    23:00 +5°C° 0 mm 4 mps 756 mmHg 82%

    Day after tomorrow, 28 April, Sunday

    Time Temperature Precipitation Wind Pressure Humidity
    00:00 +5°C° 0 mm 3 mps 756 mmHg 83%
    01:00 +4°C° 0 mm 3 mps 756 mmHg 84%
    02:00 +4°C° 0 mm 3 mps 756 mmHg 85%
    03:00 +4°C° 0 mm 3 mps 756 mmHg 86%
    04:00 +4°C° 0 mm 3 mps 756 mmHg 86%
    05:00 +4°C° 0 mm 3 mps 755 mmHg 85%
    06:00 +5°C° 0 mm 3 mps 755 mmHg 83%
    07:00 +6°C° 0 mm 4 mps 755 mmHg 82%
    08:00 +6°C° 0.2 mm 4 mps 755 mmHg 79%
    09:00 +7°C° 0.2 mm 4 mps 755 mmHg 76%
    10:00 +8°C° 0.2 mm 5 mps 755 mmHg 74%
    11:00 +9°C° 0.4 mm 5 mps 755 mmHg 71%
    12:00 +9°C° 0.4 mm 5 mps 755 mmHg 68%
    13:00 +11°C° 0.4 mm 4 mps 754 mmHg 65%
    14:00 +11°C° 0.3 mm 4 mps 754 mmHg 65%
    15:00 +11°C° 0.3 mm 4 mps 754 mmHg 65%
    16:00 +11°C° 0.3 mm 4 mps 754 mmHg 65%
    17:00 +10°C° 0.1 mm 4 mps 754 mmHg 70%
    18:00 +9°C° 0.1 mm 3 mps 754 mmHg 74%
    19:00 +8°C° 0.1 mm 2 mps 754 mmHg 79%
    20:00 +7°C° 0.1 mm 2 mps 754 mmHg 82%
    21:00 +7°C° 0.1 mm 2 mps 754 mmHg 86%
    22:00 +7°C° 0.1 mm 1 mps 754 mmHg 89%
    23:00 +7°C° 0.1 mm 1 mps 754 mmHg 90%

    29 April, Monday

    Time Temperature Precipitation Wind Pressure Humidity
    00:00 +7°C° 0.1 mm 1 mps 754 mmHg 91%
    01:00 +6°C° 0.1 mm 1 mps 754 mmHg 92%
    02:00 +6°C° 0.1 mm 1 mps 754 mmHg 92%
    03:00 +5°C° 0.1 mm 0 mps 754 mmHg 92%
    04:00 +5°C° 0.1 mm 0 mps 755 mmHg 92%
    05:00 +5°C° 0.1 mm 0 mps 755 mmHg 91%
    06:00 +6°C° 0.1 mm 0 mps 755 mmHg 89%
    07:00 +6°C° 0.1 mm 0 mps 755 mmHg 88%
    08:00 +8°C° 0 mm 0 mps 756 mmHg 81%
    09:00 +10°C° 0 mm 0 mps 756 mmHg 75%
    10:00 +11°C° 0 mm 0 mps 756 mmHg 68%
    11:00 +12°C° 0.1 mm 0 mps 756 mmHg 63%
    12:00 +14°C° 0.1 mm 1 mps 755 mmHg 58%
    13:00 +16°C° 0.1 mm 1 mps 755 mmHg 53%
    14:00 +16°C° 0.1 mm 1 mps 755 mmHg 52%
    15:00 +16°C° 0.1 mm 2 mps 754 mmHg 52%
    16:00 +16°C° 0.1 mm 2 mps 754 mmHg 51%
    17:00 +15°C° 0.1 mm 2 mps 754 mmHg 55%
    18:00 +14°C° 0.1 mm 1 mps 754 mmHg 60%
    19:00 +13°C° 0.1 mm 1 mps 754 mmHg 65%
    20:00 +12°C° 0 mm 1 mps 755 mmHg 67%
    21:00 +11°C° 0 mm 1 mps 755 mmHg 70%
    22:00 +8°C° 0 mm 0 mps 755 mmHg 72%
    23:00 +9°C° 0 mm 1 mps 755 mmHg 73%

    30 April, Tuesday

    Time Temperature Precipitation Wind Pressure Humidity
    00:00 +9°C° 0 mm 1 mps 755 mmHg 74%
    01:00 +8°C° 0 mm 1 mps 755 mmHg 75%
    02:00 +8°C° 0 mm 1 mps 755 mmHg 75%
    03:00 +8°C° 0 mm 1 mps 755 mmHg 75%
    04:00 +8°C° 0 mm 1 mps 754 mmHg 75%
    05:00 +9°C° 0 mm 1 mps 754 mmHg 74%
    06:00 +10°C° 0 mm 1 mps 754 mmHg 73%
    07:00 +10°C° 0 mm 1 mps 754 mmHg 72%
    08:00 +12°C° 0 mm 1 mps 754 mmHg 68%
    09:00 +13°C° 0 mm 1 mps 754 mmHg 65%
    10:00 +15°C° 0 mm 1 mps 754 mmHg 61%
    11:00 +15°C° 0 mm 2 mps 753 mmHg 60%
    12:00 +16°C° 0 mm 2 mps 753 mmHg 58%
    13:00 +17°C° 0 mm 2 mps 753 mmHg 57%
    14:00 +17°C° 0 mm 2 mps 753 mmHg 57%
    15:00 +17°C° 0 mm 2 mps 752 mmHg 58%
    16:00 +17°C° 0 mm 2 mps 752 mmHg 58%
    17:00 +16°C° 0 mm 1 mps 752 mmHg 62%
    18:00 +15°C° 0 mm 1 mps 752 mmHg 66%
    19:00 +14°C° 0 mm 1 mps 752 mmHg 70%
    20:00 +13°C° 0 mm 1 mps 752 mmHg 74%
    21:00 +12°C° 0 mm 1 mps 752 mmHg 77%
    22:00 +11°C° 0 mm 1 mps 752 mmHg 80%
    23:00 +11°C° 0 mm 1 mps 752 mmHg 82%

    1 May, Wednesday

    Time Temperature Precipitation Wind Pressure Humidity
    00:00 +10°C° 0 mm 1 mps 752 mmHg 84%
    01:00 +10°C° 0 mm 1 mps 752 mmHg 86%
    02:00 +10°C° 0 mm 1 mps 752 mmHg 86%
    03:00 +9°C° 0 mm 1 mps 751 mmHg 87%
    04:00 +9°C° 0 mm 1 mps 751 mmHg 88%
    05:00 +10°C° 0 mm 1 mps 751 mmHg 85%
    06:00 +11°C° 0 mm 1 mps 751 mmHg 82%
    07:00 +12°C° 0 mm 1 mps 751 mmHg 79%
    08:00 +14°C° 0 mm 1 mps 751 mmHg 72%
    09:00 +16°C° 0 mm 1 mps 750 mmHg 66%
    10:00 +17°C° 0 mm 0 mps 750 mmHg 59%
    11:00 +20°C° 0.1 mm 1 mps 750 mmHg 57%
    12:00 +20°C° 0.1 mm 1 mps 749 mmHg 54%
    13:00 +21°C° 0.1 mm 1 mps 749 mmHg 51%
    14:00 +21°C° 0.2 mm 1 mps 749 mmHg 52%
    15:00 +21°C° 0.2 mm 1 mps 748 mmHg 52%
    16:00 +21°C° 0.2 mm 1 mps 748 mmHg 52%
    17:00 +20°C° 0.2 mm 1 mps 748 mmHg 58%
    18:00 +19°C° 0.2 mm 1 mps 748 mmHg 64%
    19:00 +16°C° 0.2 mm 1 mps 747 mmHg 69%
    20:00 +15°C° 0 mm 1 mps 748 mmHg 73%
    21:00 +14°C° 0 mm 1 mps 748 mmHg 76%
    22:00 +13°C° 0 mm 1 mps 748 mmHg 80%
    23:00 +12°C° 0 mm 1 mps 748 mmHg 82%
    Show more